This is the latest recevied weather packets stored in our database for station/object SP9TWP-3. If no packets are shown the sender has not sent any weather packets the latest 10 day(s).
| Time | Temp. | Humidity | Pressure | Rain* | Wind** | Luminosity | Snow |
|---|---|---|---|---|---|---|---|
| 1777513532 | 0.56° C | 76% | 1028.6 hPa | - | - | - | - |
| 1777512632 | 0.56° C | 74% | 1028.4 hPa | - | - | - | - |
| 1777511732 | 0.56° C | 73% | 1028.3 hPa | - | - | - | - |
| 1777510832 | 0.56° C | 73% | 1028.3 hPa | - | - | - | - |
| 1777509932 | 0.56° C | 77% | 1028.4 hPa | - | - | - | - |
| 1777509032 | 0.56° C | 76% | 1028.3 hPa | - | - | - | - |
| 1777508132 | 1.11° C | 75% | 1028.3 hPa | - | - | - | - |
| 1777507231 | 1.11° C | 74% | 1028.3 hPa | - | - | - | - |
| 1777506331 | 1.11° C | 74% | 1028.2 hPa | - | - | - | - |
| 1777505431 | 1.11° C | 71% | 1028.3 hPa | - | - | - | - |
| 1777504531 | 1.11° C | 69% | 1028.3 hPa | - | - | - | - |
| 1777503631 | 1.67° C | 69% | 1028.3 hPa | - | - | - | - |
| 1777502731 | 1.67° C | 67% | 1028.2 hPa | - | - | - | - |
| 1777501830 | 1.67° C | 67% | 1028.2 hPa | - | - | - | - |
| 1777500930 | 2.22° C | 66% | 1028.2 hPa | - | - | - | - |
| 1777500030 | 2.78° C | 63% | 1028.2 hPa | - | - | - | - |
| 1777499130 | 2.78° C | 62% | 1028.2 hPa | - | - | - | - |
| 1777498230 | 2.78° C | 64% | 1028 hPa | - | - | - | - |
| 1777497329 | 2.78° C | 64% | 1027.9 hPa | - | - | - | - |
| 1777496429 | 2.78° C | 61% | 1027.9 hPa | - | - | - | - |
| 1777495529 | 3.33° C | 58% | 1027.7 hPa | - | - | - | - |
| 1777494629 | 3.89° C | 55% | 1027.5 hPa | - | - | - | - |
| 1777493729 | 3.89° C | 51% | 1027.5 hPa | - | - | - | - |
| 1777492829 | 4.44° C | 49% | 1027.4 hPa | - | - | - | - |
| 1777491929 | 4.44° C | 46% | 1027.3 hPa | - | - | - | - |
* Rain since midnight (hover to see other rain measurements)
** Current wind speed in m/s (hover to see current wind gust speed)